[[{"header":{"parameterUnit":"m.s-1","parameterCategory":1,"la1":30.2991,"la2":30.254,"lo1":-89.0895,"lo2":-89.0444,"dy":0.0017,"dx":0.0017,"nx":28,"ny":28,"refTime":"2026-01-10T03:00:00:Z","depth":0,"parameterNumber":2,"parameterNumberName":"U-component_of_WINDS"},"data":[0,0,0,0,0,0,0,0,0,0,0,0,0,0,0,0,0,0,0,0,0,0,0,0,0,0,0,0,0,0,0,0,0,0,0,0,0,0,0,0,0,0,0,0,0,0,0,0,0,0,0,0,0,0,0,0,0,0,-1.2895,-1.2896,0,-1.2956,-1.2957,-1.2958,-1.2974,-1.2974,-1.2973,-1.2973,-1.3038,-1.304,-1.3042,0,0,0,0,0,0,0,0,0,0,0,0,0,-1.2794,-1.2796,-1.2895,-1.2896,-1.2897,-1.2956,-1.2957,-1.2958,-1.2974,-1.2974,-1.2973,-1.2973,-1.3037,-1.304,-1.3042,0,0,0,0,0,0,0,0,0,0,0,0,0,-1.2845,-1.2796,-1.2895,-1.2912,-1.2914,-1.2956,-1.2957,-1.2958,-1.2974,-1.2974,-1.2973,-1.2973,-1.3036,-1.3039,-1.3042,-1.3073,0,0,-1.3052,-1.3053,0,0,0,0,0,0,0,0,-1.2842,-1.2849,-1.2909,-1.2911,-1.2913,-1.2957,-1.2945,-1.2997,-1.2974,-1.2951,-1.2973,-1.2972,-1.3011,-1.3017,-1.3029,-1.3076,-1.3078,-1.3052,-1.3054,-1.3055,-1.3056,0,0,0,0,0,0,0,-1.2838,-1.2846,-1.2919,-1.2909,-1.2912,-1.2917,-1.2924,-1.2955,-1.2984,-1.2953,-1.2955,-1.2962,-1.3013,-1.3026,-1.3031,-1.3079,-1.3052,-1.3055,-1.3057,-1.3058,-1.3153,-1.3154,0,0,0,0,0,0,-1.2832,-1.2843,-1.2917,-1.2921,-1.2875,-1.2919,-1.2927,-1.2944,-1.2984,-1.2989,-1.2962,-1.2962,-1.3021,-1.3027,-1.3033,-1.3071,-1.3055,-1.3058,-1.306,-1.3153,-1.3153,-1.3154,0,0,0,0,0,0,-1.283,-1.2838,-1.2915,-1.2883,-1.2893,-1.2922,-1.294,-1.2945,-1.2959,-1.299,-1.2996,-1.2971,-1.3021,-1.3029,-1.3062,-1.3073,-1.306,-1.3062,-1.3152,-1.3153,-1.3154,-1.3146,0,0,0,0,0,0,-1.2827,-1.2837,-1.2849,-1.2883,-1.2894,-1.2942,-1.2941,-1.2947,-1.2964,-1.2965,-1.3,-1.3005,-1.3021,-1.3058,-1.3066,-1.3077,-1.3065,-1.3151,-1.3152,-1.3153,-1.3146,-1.3147,-1.3148,0,0,0,0,0,-1.2823,-1.2845,-1.2849,-1.2858,-1.2909,-1.2943,-1.295,-1.2968,-1.2965,-1.2976,-1.2997,-1.3004,-1.3071,-1.3061,-1.307,-1.3083,-1.315,-1.3152,-1.3153,-1.3145,-1.3147,-1.3148,0,0,0,0,0,0,-1.2812,-1.2849,-1.2855,-1.2888,-1.2912,-1.2946,-1.2961,-1.2969,-1.2995,-1.2994,-1.3016,-1.3024,-1.3056,-1.3073,-1.3061,-1.3114,-1.3111,-1.3114,-1.3102,-1.3103,-1.3104,-1.3099,-1.3067,0,0,0,0,0,-1.2813,-1.2837,-1.2869,-1.2895,-1.2907,-1.2932,-1.2948,-1.2959,-1.2985,-1.2996,-1.3018,-1.3044,-1.3071,-1.3088,-1.3115,-1.3149,-1.3156,-1.3162,-1.3163,-1.3164,-1.3166,-1.3185,-1.3188,-1.3159,-1.3159,-1.3159,0,0,-1.2817,-1.284,-1.2854,-1.2894,-1.2914,-1.2938,-1.294,-1.2967,-1.2985,-1.3,-1.3032,-1.305,-1.308,-1.3114,-1.313,-1.3129,-1.3176,-1.3166,-1.3166,-1.3168,-1.3187,-1.3189,-1.3192,-1.316,-1.316,-1.316,0,0,-1.2835,-1.2855,-1.2879,-1.2899,-1.2929,-1.2945,-1.2951,-1.2983,-1.2995,-1.3028,-1.304,-1.3063,-1.3109,-1.3129,-1.3146,-1.3172,-1.3179,-1.318,-1.3186,-1.3204,-1.3206,-1.3208,-1.3217,-1.322,-1.3183,-1.3183,-1.3183,0,-1.2835,-1.2872,-1.289,-1.2916,-1.2933,-1.2947,-1.2971,-1.299,-1.3027,-1.3039,-1.3038,-1.3095,-1.3117,-1.3155,-1.3161,-1.3174,-1.3182,-1.3176,-1.3204,-1.3207,-1.3209,-1.3217,-1.3221,-1.3183,-1.3183,-1.3183,-1.3183,0,-1.2871,-1.2896,-1.2912,-1.2947,-1.2966,-1.2991,-1.3013,-1.3031,-1.3041,-1.3057,-1.3091,-1.3117,-1.3149,-1.3159,-1.3169,-1.3199,-1.3197,-1.32,-1.3197,-1.3211,-1.3219,-1.3223,-1.3182,-1.3182,-1.3182,-1.3182,0,0,-1.2883,-1.2928,-1.2933,-1.2949,-1.2983,-1.3003,-1.3029,-1.3059,-1.3074,-1.3099,-1.3121,-1.316,-1.3162,-1.3181,-1.3194,-1.321,-1.3228,-1.3211,-1.3212,-1.3212,-1.3262,-1.3259,-1.3262,-1.3234,-1.3234,-1.3235,-1.3259,0,-1.2905,-1.295,-1.2968,-1.3005,-1.3029,-1.3042,-1.3065,-1.3088,-1.3105,-1.3128,-1.3146,-1.3173,-1.3174,-1.3186,-1.3202,-1.3222,-1.3238,-1.3221,-1.3254,-1.3255,-1.3245,-1.3267,-1.3264,-1.3285,-1.3262,-1.3263,-1.3263,0,-1.2937,-1.2962,-1.3001,-1.3031,-1.3042,-1.3062,-1.3091,-1.3113,-1.314,-1.3151,-1.3172,-1.3184,-1.3212,-1.3207,-1.3246,-1.3234,-1.3249,-1.3261,-1.3262,-1.3265,-1.326,-1.327,-1.3293,-1.3296,-1.3269,-1.3269,-1.3268,0,-1.2941,-1.2985,-1.3013,-1.3027,-1.3063,-1.3077,-1.3093,-1.312,-1.3137,-1.3163,-1.3174,-1.3203,-1.3219,-1.3241,-1.3261,-1.3256,-1.3298,-1.3295,-1.3307,-1.3307,-1.3315,-1.3314,-1.334,-1.3326,-1.3326,-1.3326,-1.3326,0,-1.2963,-1.2987,-1.3016,-1.3033,-1.306,-1.308,-1.3106,-1.3123,-1.3147,-1.3168,-1.3183,-1.3203,-1.3228,-1.3252,-1.3267,-1.3297,-1.3304,-1.3314,-1.3318,-1.3312,-1.3311,-1.3322,-1.332,-1.3326,-1.3326,-1.3326,-1.3326,0,-1.2972,-1.2993,-1.3025,-1.3057,-1.3066,-1.3084,-1.3112,-1.313,-1.3147,-1.3174,-1.3182,-1.3209,-1.3237,-1.3259,-1.3296,-1.3307,-1.3338,-1.3342,-1.3328,-1.333,-1.3341,-1.3339,-1.3374,-1.3379,-1.3362,-1.3362,-1.3362,0,-1.2985,-1.3003,-1.3037,-1.3052,-1.3067,-1.3092,-1.3109,-1.3129,-1.3147,-1.3179,-1.3193,-1.3223,-1.3247,-1.3292,-1.3315,-1.3344,-1.3349,-1.3359,-1.3353,-1.3347,-1.3348,-1.3347,-1.3348,-1.3359,-1.336,-1.336,-1.336,0,-1.3004,-1.3013,-1.3037,-1.3065,-1.3084,-1.3107,-1.313,-1.3142,-1.3167,-1.3186,-1.3215,-1.3234,-1.3272,-1.33,-1.3331,-1.3349,-1.3358,-1.3361,-1.3366,-1.336,-1.335,-1.3355,-1.3329,-1.336,-1.336,-1.336,-1.336,-1.336,-1.3015,-1.3032,-1.3058,-1.3084,-1.3103,-1.3124,-1.3142,-1.3162,-1.3186,-1.3217,-1.3228,-1.3258,-1.3285,-1.3327,-1.3345,-1.3369,-1.3369,-1.3376,-1.3377,-1.3378,-1.3377,-1.3347,-1.3375,-1.3375,-1.3375,-1.3375,-1.3375,0,-1.3035,-1.3052,-1.3076,-1.3107,-1.3128,-1.3135,-1.3161,-1.3177,-1.3203,-1.3227,-1.325,-1.3283,-1.3312,-1.3337,-1.3366,-1.3381,-1.3386,-1.3388,-1.3386,-1.339,-1.3375,-1.3368,-1.3383,-1.3383,-1.3383,-1.3383,-1.3383,-1.3383,-1.3048,-1.3075,-1.3088,-1.3126,-1.3143,-1.3171,-1.3185,-1.3205,-1.3224,-1.326,-1.3283,-1.3299,-1.3324,-1.3356,-1.3382,-1.3389,-1.3399,-1.3399,-1.3407,-1.3392,-1.3391,-1.339,-1.3384,-1.3401,-1.3401,-1.342,-1.342,-1.342]},{"header":{"parameterUnit":"m.s-1","parameterCategory":1,"la1":30.2991,"la2":30.254,"lo1":-89.0895,"lo2":-89.0444,"dy":0.0017,"dx":0.0017,"nx":28,"ny":28,"refTime":"2026-01-10T03:00:00:Z","depth":0,"parameterNumber":3,"parameterNumberName":"V-component_of_WINDS"},"data":[0,0,0,0,0,0,0,0,0,0,0,0,0,0,0,0,0,0,0,0,0,0,0,0,0,0,0,0,0,0,0,0,0,0,0,0,0,0,0,0,0,0,0,0,0,0,0,0,0,0,0,0,0,0,0,0,0,0,3.437,3.4371,0,3.4414,3.4415,3.4415,3.4408,3.4407,3.4406,3.4406,3.4452,3.4454,3.4456,0,0,0,0,0,0,0,0,0,0,0,0,0,3.4282,3.4283,3.437,3.4371,3.4371,3.4414,3.4415,3.4415,3.4408,3.4407,3.4406,3.4405,3.4451,3.4453,3.4456,0,0,0,0,0,0,0,0,0,0,0,0,0,3.4322,3.4284,3.437,3.4373,3.4373,3.4414,3.4415,3.4416,3.4408,3.4407,3.4406,3.4405,3.445,3.4453,3.4456,3.4497,0,0,3.4465,3.4466,0,0,0,0,0,0,0,0,3.432,3.4326,3.4372,3.4373,3.4373,3.4404,3.44,3.4443,3.4409,3.4395,3.4406,3.4404,3.4437,3.4441,3.4452,3.4499,3.4501,3.4465,3.4467,3.4468,3.4469,0,0,0,0,0,0,0,3.4317,3.4324,3.4388,3.4373,3.4374,3.4372,3.4377,3.4408,3.4422,3.4396,3.4396,3.4401,3.4437,3.4449,3.4453,3.4502,3.4465,3.4468,3.447,3.4471,3.4588,3.459,0,0,0,0,0,0,3.4313,3.4321,3.4386,3.4389,3.4343,3.4375,3.438,3.4396,3.4422,3.4424,3.4402,3.44,3.4445,3.4449,3.4454,3.4507,3.4468,3.4471,3.4473,3.4587,3.4589,3.459,0,0,0,0,0,0,3.4312,3.4319,3.4384,3.4355,3.4363,3.4378,3.4395,3.4397,3.4409,3.4426,3.4428,3.4411,3.4444,3.445,3.4487,3.4508,3.4472,3.4475,3.4585,3.4588,3.4589,3.461,0,0,0,0,0,0,3.4309,3.4319,3.4334,3.4355,3.4365,3.4416,3.4397,3.4399,3.4414,3.4412,3.4435,3.4438,3.4443,3.4483,3.449,3.4511,3.4477,3.4584,3.4586,3.4589,3.4608,3.4612,3.4617,0,0,0,0,0,3.4306,3.4337,3.4335,3.4343,3.4384,3.4417,3.4423,3.4428,3.4415,3.4432,3.4443,3.4437,3.4504,3.4487,3.4495,3.4517,3.4582,3.4586,3.4589,3.4605,3.4611,3.4617,0,0,0,0,0,0,3.4318,3.434,3.4337,3.4377,3.4395,3.4416,3.4436,3.4433,3.4456,3.4454,3.4459,3.4464,3.4503,3.4513,3.4493,3.456,3.4542,3.4547,3.4552,3.4558,3.4562,3.456,3.448,0,0,0,0,0,3.4325,3.4349,3.4368,3.4401,3.441,3.4422,3.4436,3.4438,3.4458,3.4466,3.4479,3.4499,3.4525,3.4541,3.4565,3.4608,3.4615,3.4628,3.4633,3.4636,3.4641,3.4668,3.4674,3.46,3.46,3.46,0,0,3.434,3.4355,3.437,3.4403,3.4418,3.4445,3.4428,3.4456,3.4476,3.447,3.4506,3.4517,3.4539,3.458,3.4599,3.459,3.4663,3.464,3.4643,3.4646,3.4671,3.4678,3.4685,3.4602,3.4602,3.4602,0,0,3.4382,3.4394,3.4425,3.444,3.4462,3.447,3.4477,3.4499,3.4506,3.4542,3.4539,3.4563,3.4606,3.4623,3.4637,3.4687,3.4684,3.4694,3.4719,3.4745,3.4751,3.4756,3.4777,3.4784,3.4699,3.4699,3.4699,0,3.4398,3.4437,3.4441,3.447,3.4486,3.4481,3.4513,3.4527,3.4556,3.4568,3.4558,3.4613,3.4628,3.4674,3.4686,3.4697,3.4707,3.4693,3.4749,3.4755,3.476,3.478,3.4787,3.47,3.47,3.47,3.47,0,3.4457,3.4484,3.4506,3.4535,3.4553,3.4583,3.4593,3.461,3.4611,3.4621,3.4659,3.4676,3.4705,3.4716,3.4716,3.4763,3.4757,3.4748,3.473,3.4768,3.4787,3.4794,3.4702,3.4702,3.4701,3.4701,0,0,3.4508,3.454,3.4548,3.4562,3.4587,3.4609,3.4639,3.4668,3.4684,3.4704,3.4732,3.4769,3.4761,3.4777,3.478,3.4802,3.4844,3.4791,3.4792,3.4803,3.49,3.4908,3.4917,3.4841,3.4843,3.4844,3.4899,0,3.4554,3.4609,3.4614,3.4663,3.4689,3.4686,3.4713,3.4732,3.4741,3.4766,3.4776,3.4804,3.479,3.48,3.4822,3.4834,3.4864,3.483,3.4869,3.487,3.4866,3.4926,3.4935,3.4986,3.4906,3.4907,3.4908,0,3.4616,3.4639,3.4691,3.4714,3.4726,3.475,3.4778,3.48,3.4822,3.4828,3.4846,3.4847,3.488,3.4859,3.4906,3.4883,3.4899,3.4908,3.491,3.4916,3.4893,3.4936,3.5002,3.5011,3.4919,3.4918,3.4917,0,3.4651,3.4695,3.4733,3.4745,3.4772,3.479,3.4802,3.4822,3.484,3.4864,3.4876,3.4903,3.4919,3.4941,3.4949,3.4933,3.4997,3.4976,3.5004,3.5004,3.502,3.5019,3.5092,3.5025,3.5025,3.5025,3.5025,0,3.4704,3.4737,3.475,3.4773,3.481,3.4816,3.4853,3.4864,3.4883,3.4909,3.4907,3.4932,3.494,3.4967,3.4973,3.5013,3.5019,3.5026,3.5028,3.5028,3.5028,3.504,3.5038,3.5027,3.5027,3.5026,3.5026,0,3.4751,3.4761,3.4802,3.4825,3.4831,3.4858,3.4878,3.4901,3.491,3.4944,3.4952,3.4967,3.4999,3.5008,3.5046,3.5051,3.5098,3.5095,3.5091,3.5092,3.5121,3.5119,3.5207,3.522,3.5142,3.5142,3.5143,0,3.4786,3.4811,3.4837,3.4855,3.4868,3.4896,3.4914,3.492,3.494,3.4968,3.4988,3.5019,3.5045,3.5096,3.5111,3.514,3.514,3.5169,3.5145,3.5145,3.5144,3.5144,3.5148,3.5174,3.5175,3.5175,3.5176,0,3.4847,3.4851,3.4877,3.4906,3.4927,3.495,3.4972,3.4986,3.4996,3.5018,3.5051,3.5071,3.511,3.5142,3.5172,3.5186,3.5184,3.5183,3.5192,3.5194,3.5191,3.5196,3.5107,3.5182,3.5181,3.5181,3.518,3.518,3.4891,3.4915,3.4937,3.4967,3.4984,3.5005,3.5029,3.5041,3.5068,3.5101,3.5103,3.5139,3.5162,3.5202,3.5218,3.5247,3.5239,3.525,3.5254,3.5258,3.5262,3.5184,3.5252,3.5252,3.5252,3.5251,3.5251,0,3.4955,3.4969,3.4997,3.5028,3.5052,3.5046,3.5071,3.5092,3.5123,3.5144,3.517,3.5209,3.524,3.5257,3.5289,3.5309,3.5309,3.5318,3.5318,3.5322,3.5265,3.5256,3.5317,3.5317,3.5317,3.5317,3.5317,3.5317,3.4991,3.5032,3.5038,3.5088,3.5102,3.5137,3.5152,3.5172,3.5189,3.5233,3.5259,3.527,3.529,3.5324,3.5353,3.5357,3.537,3.538,3.5384,3.5332,3.5325,3.5319,3.531,3.5382,3.5382,3.5439,3.5439,3.544]}]]